User: anonymous   Login
Location: Larrial
(48.2758°N, 4.5331°W)
Time: 03:55:44
(UTC+00:00)
Language:

VELOX 1 - Orbit

View from above orbital plane
View from above orbital plane
View from above satellite
View from above satellite

Ground track
Ground track

The orbit data is extracted from the following two-line orbital elements,

1 40057U 14034E   21339.78219670  .00000897  00000-0  13078-3 0  9992
2 40057  98.3455 139.9512 0010010 225.3738 134.6658 14.78399300400858
Epoch (UTC): 05 December 2021 18:46:21
Eccentricity: 0.0010010
inclination: 98.3455°
perigee height: 627 km
apogee height: 641 km
right ascension of ascending node: 139.9512°
argument of perigee: 225.3738°
revolutions per day: 14.78399300
mean anomaly at epoch: 134.6658°
orbit number at epoch: 40085

The dashed part of the orbit path shows where the satellite is in the earth's shadow,  

DLR